This demonstration page uses our WeatherBlox Daily Observations layout. Learn more.

Left ArrowRight Arrow

Hourly Observations for November 19, 2015

Temp ( °F °C ) Dew Point ( °F °C ) Humidity (%) Winds ( mph kmh ) Pressure ( in mb ) Visibility ( mi km ) Precip ( " mm )
12:53 am 00:53 Clear 17 -8.3 14 -10 88 88 SW 12 19 30.09 1019 10 16 N/A
1:53 am 01:53 Clear 16 -8.9 13 -10.6 88 88 SW 12 19 30.11 1020 10 16 N/A
2:53 am 02:53 Clear 14 -10 12 -11.1 92 92 SW 9 15 30.11 1020 10 16 N/A
3:53 am 03:53 Clear 16 -8.9 13 -10.6 88 88 SW 13 20 30.10 1019 10 16 N/A
4:53 am 04:53 Clear 19 -7.2 15 -9.4 84 84 WSW 13 20 30.11 1020 10 16 N/A
5:53 am 05:53 Clear 20 -6.7 16 -8.9 85 85 WSW 12 19 30.10 1019 10 16 N/A
6:53 am 06:53 Clear 21 -6.1 16 -8.9 81 81 SW 15 24 30.09 1019 10 16 N/A
7:53 am 07:53 Sunny 20 -6.7 15 -9.4 81 81 SW 12 19 30.09 1019 10 16 N/A
8:53 am 08:53 Partly Cloudy 22 -5.6 16 -8.9 78 78 SW 8 13 30.09 1019 10 16 N/A
9:53 am 09:53 Cloudy 27 -2.8 21 -6.1 78 78 SW 9 15 30.08 1019 10 16 N/A
10:53 am 10:53 Cloudy 30 -1.1 21 -6.1 69 69 SW 9 15 30.07 1018 10 16 N/A
11:53 am 11:53 Cloudy 31 -0.6 22 -5.6 69 69 SW 8 13 30.06 1018 10 16 N/A
12:53 pm 12:53 Cloudy 33 0.6 22 -5.6 64 64 WSW 12 19 30.04 1017 10 16 N/A
1:53 pm 13:53 Mostly Cloudy 35 1.7 22 -5.6 59 59 SW 15 24 30.04 1017 10 16 N/A
2:53 pm 14:53 Mostly Sunny 36 2.2 22 -5.6 57 57 WSW 9 15 30.03 1017 10 16 N/A
3:53 pm 15:53 Sunny 35 1.7 14 -10 42 42 NW 9 15 30.04 1017 10 16 N/A
4:53 pm 16:53 Clear 27 -2.8 14 -10 58 58 W 8 13 30.06 1018 10 16 N/A
5:53 pm 17:53 Clear 21 -6.1 13 -10.6 71 71 WNW 7 11 30.07 1018 10 16 N/A
6:53 pm 18:53 Clear 19 -7.2 12 -11.1 74 74 W 3 6 30.09 1019 10 16 N/A
7:53 pm 19:53 Clear 19 -7.2 14 -10 81 81 W 7 11 30.10 1019 10 16 N/A
8:53 pm 20:53 Clear 19 -7.2 14 -10 81 81 NW 6 9 30.11 1020 10 16 N/A
9:53 pm 21:53 Cloudy 20 -6.7 15 -9.4 81 81 SE 3 6 30.13 1020 10 16 N/A
10:53 pm 22:53 Cloudy 24 -4.4 16 -8.9 71 71 ENE 7 11 30.14 1021 10 16 N/A
11:53 pm 23:53 Cloudy 23 -5 16 -8.9 74 74 NE 5 7 30.17 1022 10 16 N/A

Powered by AerisWeather